Погода в Чаковце

Хорватия     46°23′13″N   16°26′29″E
темп.,
°C
ветер,
м/с
пор.,
м/с
влажн.,
%
обл.,
%
осадки,
мм/ч
давл.,
гПа
погр.,
м
19 сентября, вс
вс1923:00+13всв22802 0.0 101613
02:00+11с00871 0.0 101510
05:00+10зсз11910 0.0 101510
08:00+12ссв118123 0.0 101580
11:00+17юв1259100 0.0 1015737
14:00+19ююв2251100 0.0 10131067
17:00+14ююз348676 1.8 1013172
20:00+14ссв008967 1.8 101420
20 сентября, пн
пн2023:00+12сз1187100 0.0 101513
02:00+13ссв277595 0.0 1015209
05:00+12св3771100 0.0 1015345
08:00+12ссв3867100 0.0 1017527
11:00+13ссв4659100 0.0 1018667
14:00+15ссв564899 0.0 10181000
17:00+14с3654100 0.0 1019628
20:00+12ссз4874100 0.0 1021362
21 сентября, вт
вт2123:00+12сз2676100 0.0 1022241
02:00+10ссз248468 0.0 1023121
05:00+7ссз23883 0.0 102441
08:00+9ссз25730 0.0 1026180
11:00+16ссв46433 0.0 10261183
14:00+19с45355 0.0 10252024
17:00+19св34365 0.0 10241845
20:00+12всв225510 0.0 102513
22 сентября, ср
ср2223:00+10зсз115984 0.0 102610
02:00+12сз225495 0.0 102642
05:00+12с2759100 0.0 1025195
08:00+12ссв41155100 0.0 1025824
11:00+14ссв6949100 0.0 10261311
14:00+16ссв7104877 0.0 10251671
17:00+15ссв695344 0.0 10241257
20:00+11св267084 0.0 1025176
23 сентября, чт
чт2323:00+11з1168100 0.0 102538
02:00+11з1170100 0.0 102338
05:00+11юз1271100 0.0 102263
08:00+11юз2375100 0.0 1022131
11:00+17юз344946 0.0 1020922
14:00+21юз444021 0.0 10171272
17:00+21ююз4543100 0.0 10151111
20:00+16ю2459100 0.0 101469